Location: Napa Soda Springs
(38.3907°N, 122.2794°W)
Time: 08:11:41
(UTC+00:00)

Cosmos 1689 Rocket - Pass Details

Date: 29 October 2020
Orbit: 360 x 374 km, 97.5° (Epoch: 02 December)

Event Time Altitude Azimuth Distance (km) Brightness Sun altitude
Rises 13:16:51 0° 160° (SSE) 2,228 6.3 -15.4°
Reaches altitude 10° 13:18:48 10° 157° (SSE) 1,378 5.2 -15.1°
Maximum altitude 13:21:42 60° 76° (ENE) 435 2.6 -14.5°
Drops below altitude 10° 13:24:36 10° 356° (N) 1,379 4.8 -13.9°
Sets 13:26:33 0° 352° (N) 2,229 5.8 -13.6°
